Location: Miss�
(46.9484°N, 0.1922°W)
Time: 02:49:21
(UTC+00:00)

Cosmos 1666 - Pass Details

Date: 02 March 2021
Orbit: 497 x 518 km, 82.5° (Epoch: 12 April)

Event Time Altitude Azimuth Distance (km) Brightness Sun altitude
Rises 18:46:25 0° 151° (SSE) 2,574 5.9 -10.8°
Reaches altitude 10° 18:48:58 10° 133° (SE) 1,698 4.9 -11.2°
Maximum altitude 18:51:36 19° 88° (E) 1,254 4.0 -11.7°
Drops below altitude 10° 18:54:15 10° 42° (NE) 1,712 5.0 -12.1°
Sets 18:56:50 0° 24° (NNE) 2,605 6.1 -12.5°
